Weather History for West Plains, MO

Change the Weather History Date:

Thursday, January 17, 2013

  Actual Average Record
Temperature  
Mean Temperature 34 °F 34 °F  
Max Temperature 43 °F 44 °F 74 °F (1952)
Min Temperature 24 °F 23 °F -12 °F (1977)
Degree Days  
Heating Degree Days 31 31  
Month to date heating degree days 522 527  
Since 1 July heating degree days 2190 2272  
Cooling Degree Days 0 0  
Month to date cooling degree days 0 0  
Year to date cooling degree days 0 0  
Moisture  
Dew Point 24 °F    
Average Humidity 61    
Maximum Humidity 76    
Minimum Humidity 45    
Precipitation  
Precipitation 0.00 in 0.09 in 1.26 in (1988)
Month to date precipitation 1.92 1.11  
Year to date precipitation 1.92 1.11  
Sea Level Pressure  
Sea Level Pressure 30.36 in    
Wind  
Wind Speed 7 mph (NNW)    
Max Wind Speed 16 mph    
Max Gust Speed 22 mph    
Visibility 10 miles    
Events      
T = Trace of Precipitation, MM = Missing Value Source: NWS Daily Summary

Daily Weather History Graph

Daily Weather History Graph

Search for Another Location

Airport:

Trip Planner

Search our weather history database for the weather conditions in past years. The results will help you decide how hot, cold, wet, or windy it might be!

Date:

Astronomy

Jan. 17, 2013 Rise Set
Actual Time 7:18 AM CST 5:17 PM CST
Civil Twilight 6:50 AM CST 5:45 PM CST
Nautical Twilight 6:18 AM CST 6:17 PM CST
Astronomical Twilight 5:47 AM CST 6:48 PM CST
Moon 10:36 AM CST (1/17) 11:57 PM CST (1/17)
Length of Visible Light 10h 54m
Length of Day
9h 58m
Waxing Crescent, 38% of the Moon is Illuminated
Jan 17
Waxing Crescent
Jan 18
First Quarter
Jan 26
Full
Feb 3
Last Quarter
Feb 10
New

Hourly Weather History & Observations

Time (CST) Temp. Windchill Dew Point Humidity Pressure Visibility Wind Dir Wind Speed Gust Speed Precip Events Conditions
12:53 AM 33.1 °F 26.9 °F 19.0 °F 56% 30.17 in 10.0 mi West 6.9 mph - N/A   Clear
1:53 AM 30.9 °F 25.2 °F 19.0 °F 61% 30.18 in 10.0 mi WSW 5.8 mph - N/A   Clear
2:53 AM 28.9 °F 25.2 °F 18.0 °F 64% 30.19 in 10.0 mi WNW 3.5 mph - N/A   Clear
3:53 AM 34.0 °F 28.0 °F 23.0 °F 64% 30.18 in 10.0 mi NNW 6.9 mph - N/A   Mostly Cloudy
6:53 AM 33.1 °F 26.1 °F 24.1 °F 70% 30.25 in 10.0 mi NNW 8.1 mph - N/A   Clear
7:53 AM 33.1 °F 24.9 °F 24.1 °F 70% 30.29 in 10.0 mi North 10.4 mph - N/A   Clear
8:53 AM 36.0 °F 28.0 °F 27.0 °F 70% 30.32 in 10.0 mi North 11.5 mph 17.3 mph N/A   Clear
9:53 AM 37.9 °F 29.2 °F 28.9 °F 70% 30.35 in 10.0 mi North 15.0 mph - N/A   Clear
10:27 AM 37.4 °F 28.9 °F 28.4 °F 70% 30.34 in 10.0 mi North 13.8 mph 18.4 mph N/A   Mostly Cloudy
10:53 AM 37.9 °F 30.9 °F 30.0 °F 73% 30.37 in 10.0 mi North 10.4 mph 17.3 mph N/A   Overcast
11:53 AM 36.0 °F 29.0 °F 28.9 °F 76% 30.38 in 10.0 mi NNW 9.2 mph - N/A   Overcast
12:53 PM 36.0 °F 29.0 °F 28.0 °F 73% 30.39 in 10.0 mi NNW 9.2 mph - N/A   Overcast
1:01 PM 37.4 °F 30.8 °F 28.4 °F 70% 30.36 in 10.0 mi NNW 9.2 mph - N/A   Overcast
1:36 PM 39.2 °F 33.0 °F 26.6 °F 61% 30.35 in 10.0 mi North 9.2 mph 17.3 mph N/A   Scattered Clouds
1:46 PM 37.4 °F 30.8 °F 28.4 °F 70% 30.35 in 10.0 mi WNW 9.2 mph - N/A   Mostly Cloudy
1:53 PM 37.0 °F 30.4 °F 27.0 °F 67% 30.38 in 10.0 mi NW 9.2 mph - N/A   Scattered Clouds
2:53 PM 42.1 °F 36.6 °F 26.1 °F 53% 30.38 in 10.0 mi NW 9.2 mph - N/A   Clear
3:53 PM 43.0 °F 38.2 °F 24.1 °F 47% 30.38 in 10.0 mi NNW 8.1 mph - N/A   Clear
4:53 PM 41.0 °F 37.1 °F 21.0 °F 45% 30.41 in 10.0 mi NNW 5.8 mph - N/A   Clear
5:53 PM 36.0 °F 32.1 °F 19.9 °F 52% 30.43 in 10.0 mi NNW 4.6 mph - N/A   Clear
6:53 PM 34.0 °F 28.8 °F 21.9 °F 61% 30.45 in 10.0 mi NNW 5.8 mph - N/A   Clear
7:53 PM 33.1 °F - 21.9 °F 64% 30.48 in 10.0 mi Calm Calm - N/A   Clear
8:53 PM 32.0 °F 27.5 °F 23.0 °F 69% 30.49 in 10.0 mi NNW 4.6 mph - N/A   Clear
9:53 PM 30.9 °F 27.5 °F 21.9 °F 69% 30.51 in 10.0 mi NNW 3.5 mph - N/A   Clear
10:53 PM 26.1 °F - 19.9 °F 78% 30.51 in 10.0 mi Calm Calm - N/A   Clear
11:53 PM 26.1 °F - 21.0 °F 81% 30.51 in 10.0 mi Calm Calm - N/A   Clear